Погода в Патус-ди-Минас

Бразилия     18°35′41″S   46°31′01″W
темп.,
°C
ветер,
м/с
пор.,
м/с
влажн.,
%
обл.,
%
осадки,
мм/ч
давл.,
гПа
погр.,
м
27 февраля, сб
сб2700:00+18всв3797100 1.9 1014337
03:00+18всв2797100 2.3 1012341
06:00+18всв2597100 0.2 1013265
09:00+18всв3797100 3.4 1015485
12:00+19св3696100 4.7 1014407
15:00+19св4794100 5.5 1012432
18:00+19всв3895100 0.0 1011383
21:00+18всв269699 0.0 1013240
28 февраля, вс
вс2800:00+17всв129298 0.0 101329
03:00+17в129496 0.0 101233
06:00+17вюв239698 0.0 101377
09:00+19всв399399 0.0 1015596
12:00+23всв4776100 0.4 10141001
15:00+24всв4774100 1.5 10101083
18:00+22всв2483100 0.1 1010115
21:00+19всв1287100 0.1 101225
1 марта, пн
пн100:00+19в228299 0.0 101340
03:00+17в129170 0.0 101237
06:00+16в249557 0.0 1013103
09:00+21всв478264 0.0 1014630
12:00+24всв457699 1.8 10131051
15:00+24всв457689 4.9 1010961
18:00+21всв268986 2.5 1010257
21:00+19в229392 3.0 101227
2 марта, вт
вт200:00+18вюв129498 0.0 101434
03:00+17в269685 0.0 1013184
06:00+17всв399643 0.0 1014296
09:00+21всв588371 0.0 1016627
12:00+25св456588 0.0 10151104
15:00+25всв456668 0.0 10121235
18:00+22всв358010 0.0 1011163
21:00+18в22887 0.0 101423
3 марта, ср
ср300:00+17в119042 0.0 101623
03:00+17в119050 0.0 101523
06:00+17всв2291100 0.0 101654
09:00+22св5878100 0.0 1018680
12:00+25ссв4567100 0.0 10171168
15:00+26св346577 0.1 10131270
18:00+22ссв237990 0.0 101247
21:00+19св128893 0.1 101523